owner,sensor,date,latitude,longitude,sea_surface_height_above_sea_level,qcFlag 
TCOON,ioos:station:TCOON:005:1,2019-08-01T00:24:00Z,27.6346,-97.2370,1.08,11111222 
TCOON,ioos:station:TCOON:005:1,2019-08-01T01:24:00Z,27.6346,-97.2370,1.064,11111222 
TCOON,ioos:station:TCOON:005:1,2019-08-01T02:24:00Z,27.6346,-97.2370,1.038,11111222 
TCOON,ioos:station:TCOON:005:1,2019-08-01T03:24:00Z,27.6346,-97.2370,1.014,11111222 
TCOON,ioos:station:TCOON:005:1,2019-08-01T04:24:00Z,27.6346,-97.2370,0.994,11111222 
TCOON,ioos:station:TCOON:005:1,2019-08-01T05:24:00Z,27.6346,-97.2370,0.984,11111222 
TCOON,ioos:station:TCOON:005:1,2019-08-01T06:24:00Z,27.6346,-97.2370,0.976,11111222 
TCOON,ioos:station:TCOON:005:1,2019-08-01T07:24:00Z,27.6346,-97.2370,0.981,11111222 
TCOON,ioos:station:TCOON:005:1,2019-08-01T08:24:00Z,27.6346,-97.2370,0.987,11111222 
TCOON,ioos:station:TCOON:005:1,2019-08-01T09:24:00Z,27.6346,-97.2370,0.992,11111222 
TCOON,ioos:station:TCOON:005:1,2019-08-01T10:24:00Z,27.6346,-97.2370,1.004,11111222 
TCOON,ioos:station:TCOON:005:1,2019-08-01T11:24:00Z,27.6346,-97.2370,1.023,11111222 
TCOON,ioos:station:TCOON:005:1,2019-08-01T12:24:00Z,27.6346,-97.2370,1.04,11111222 
TCOON,ioos:station:TCOON:005:1,2019-08-01T13:24:00Z,27.6346,-97.2370,1.055,11111222 
TCOON,ioos:station:TCOON:005:1,2019-08-01T14:24:00Z,27.6346,-97.2370,1.072,11111222 
TCOON,ioos:station:TCOON:005:1,2019-08-01T15:24:00Z,27.6346,-97.2370,1.088,11111222 
TCOON,ioos:station:TCOON:005:1,2019-08-01T16:24:00Z,27.6346,-97.2370,1.102,11111222 
TCOON,ioos:station:TCOON:005:1,2019-08-01T17:24:00Z,27.6346,-97.2370,1.113,11111222 
TCOON,ioos:station:TCOON:005:1,2019-08-01T18:24:00Z,27.6346,-97.2370,1.123,11111222 
TCOON,ioos:station:TCOON:005:1,2019-08-01T19:24:00Z,27.6346,-97.2370,1.132,11111222 
TCOON,ioos:station:TCOON:005:1,2019-08-01T20:24:00Z,27.6346,-97.2370,1.138,11111222 
TCOON,ioos:station:TCOON:005:1,2019-08-01T21:24:00Z,27.6346,-97.2370,1.131,11111222 
TCOON,ioos:station:TCOON:005:1,2019-08-01T22:24:00Z,27.6346,-97.2370,1.133,11111222 
TCOON,ioos:station:TCOON:005:1,2019-08-01T23:24:00Z,27.6346,-97.2370,1.123,11111222 
TCOON,ioos:station:TCOON:005:1,2019-08-02T00:24:00Z,27.6346,-97.2370,1.113,11111222 
TCOON,ioos:station:TCOON:005:1,2019-08-02T01:24:00Z,27.6346,-97.2370,1.09,11111222 
TCOON,ioos:station:TCOON:005:1,2019-08-02T02:24:00Z,27.6346,-97.2370,1.07,11111222 
TCOON,ioos:station:TCOON:005:1,2019-08-02T03:24:00Z,27.6346,-97.2370,1.053,11111222 
TCOON,ioos:station:TCOON:005:1,2019-08-02T04:24:00Z,27.6346,-97.2370,1.036,11111222 
TCOON,ioos:station:TCOON:005:1,2019-08-02T05:24:00Z,27.6346,-97.2370,1.02,11111222 
TCOON,ioos:station:TCOON:005:1,2019-08-02T08:24:00Z,27.6346,-97.2370,1.014,11111222 
TCOON,ioos:station:TCOON:005:1,2019-08-02T09:24:00Z,27.6346,-97.2370,1.015,11111222 
TCOON,ioos:station:TCOON:005:1,2019-08-02T12:24:00Z,27.6346,-97.2370,1.054,11111222 
TCOON,ioos:station:TCOON:005:1,2019-08-02T14:24:00Z,27.6346,-97.2370,1.086,11111222 
TCOON,ioos:station:TCOON:005:1,2019-08-02T15:24:00Z,27.6346,-97.2370,1.099,11111222 
TCOON,ioos:station:TCOON:005:1,2019-08-02T16:24:00Z,27.6346,-97.2370,1.114,11111222 
TCOON,ioos:station:TCOON:005:1,2019-08-02T17:24:00Z,27.6346,-97.2370,1.128,11111222 
TCOON,ioos:station:TCOON:005:1,2019-08-02T18:24:00Z,27.6346,-97.2370,1.137,11111222 
TCOON,ioos:station:TCOON:005:1,2019-08-02T19:24:00Z,27.6346,-97.2370,1.141,11111222 
TCOON,ioos:station:TCOON:005:1,2019-08-02T21:24:00Z,27.6346,-97.2370,1.154,11111222 
TCOON,ioos:station:TCOON:005:1,2019-08-02T22:24:00Z,27.6346,-97.2370,1.157,11111222 
TCOON,ioos:station:TCOON:005:1,2019-08-02T23:24:00Z,27.6346,-97.2370,1.149,11111222 
TCOON,ioos:station:TCOON:005:1,2019-08-03T00:24:00Z,27.6346,-97.2370,1.134,11111222 
TCOON,ioos:station:TCOON:005:1,2019-08-03T01:24:00Z,27.6346,-97.2370,1.128,11111222 
TCOON,ioos:station:TCOON:005:1,2019-08-03T02:24:00Z,27.6346,-97.2370,1.116,11111222 
TCOON,ioos:station:TCOON:005:1,2019-08-03T03:24:00Z,27.6346,-97.2370,1.103,11111222 
TCOON,ioos:station:TCOON:005:1,2019-08-03T04:24:00Z,27.6346,-97.2370,1.088,11111222 
TCOON,ioos:station:TCOON:005:1,2019-08-03T05:24:00Z,27.6346,-97.2370,1.068,11111222 
TCOON,ioos:station:TCOON:005:1,2019-08-03T06:24:00Z,27.6346,-97.2370,1.053,11111222 
TCOON,ioos:station:TCOON:005:1,2019-08-03T07:24:00Z,27.6346,-97.2370,1.045,11111222 
TCOON,ioos:station:TCOON:005:1,2019-08-03T08:24:00Z,27.6346,-97.2370,1.041,11111222 
TCOON,ioos:station:TCOON:005:1,2019-08-03T09:24:00Z,27.6346,-97.2370,1.048,11111222 
TCOON,ioos:station:TCOON:005:1,2019-08-03T10:24:00Z,27.6346,-97.2370,1.051,11111222 
TCOON,ioos:station:TCOON:005:1,2019-08-03T11:24:00Z,27.6346,-97.2370,1.061,11111222 
TCOON,ioos:station:TCOON:005:1,2019-08-03T12:24:00Z,27.6346,-97.2370,1.069,11111222 
TCOON,ioos:station:TCOON:005:1,2019-08-03T13:24:00Z,27.6346,-97.2370,1.078,11111222 
TCOON,ioos:station:TCOON:005:1,2019-08-03T14:24:00Z,27.6346,-97.2370,1.098,11111222 
TCOON,ioos:station:TCOON:005:1,2019-08-03T15:24:00Z,27.6346,-97.2370,1.115,11111222 
TCOON,ioos:station:TCOON:005:1,2019-08-03T16:24:00Z,27.6346,-97.2370,1.129,11111222 
TCOON,ioos:station:TCOON:005:1,2019-08-03T17:24:00Z,27.6346,-97.2370,1.137,11111222 
TCOON,ioos:station:TCOON:005:1,2019-08-03T18:24:00Z,27.6346,-97.2370,1.14,11111222 
TCOON,ioos:station:TCOON:005:1,2019-08-03T19:24:00Z,27.6346,-97.2370,1.146,11111222 
TCOON,ioos:station:TCOON:005:1,2019-08-03T20:24:00Z,27.6346,-97.2370,1.157,11111222 
TCOON,ioos:station:TCOON:005:1,2019-08-03T21:24:00Z,27.6346,-97.2370,1.163,11111222 
TCOON,ioos:station:TCOON:005:1,2019-08-03T22:24:00Z,27.6346,-97.2370,1.165,11111222 
TCOON,ioos:station:TCOON:005:1,2019-08-03T23:24:00Z,27.6346,-97.2370,1.165,11111222 
TCOON,ioos:station:TCOON:005:1,2019-08-04T00:24:00Z,27.6346,-97.2370,1.162,11111222 
TCOON,ioos:station:TCOON:005:1,2019-08-04T01:24:00Z,27.6346,-97.2370,1.149,11111222 
TCOON,ioos:station:TCOON:005:1,2019-08-04T02:24:00Z,27.6346,-97.2370,1.141,11111222 
TCOON,ioos:station:TCOON:005:1,2019-08-04T03:24:00Z,27.6346,-97.2370,1.133,11111222 
TCOON,ioos:station:TCOON:005:1,2019-08-04T04:24:00Z,27.6346,-97.2370,1.116,11111222 
TCOON,ioos:station:TCOON:005:1,2019-08-04T05:24:00Z,27.6346,-97.2370,1.102,11111222 
TCOON,ioos:station:TCOON:005:1,2019-08-04T06:24:00Z,27.6346,-97.2370,1.085,11111222 
TCOON,ioos:station:TCOON:005:1,2019-08-04T07:24:00Z,27.6346,-97.2370,1.071,11111222 
TCOON,ioos:station:TCOON:005:1,2019-08-04T08:24:00Z,27.6346,-97.2370,1.061,11111222 
TCOON,ioos:station:TCOON:005:1,2019-08-04T09:24:00Z,27.6346,-97.2370,1.061,11111222 
TCOON,ioos:station:TCOON:005:1,2019-08-04T10:24:00Z,27.6346,-97.2370,1.065,11111222 
TCOON,ioos:station:TCOON:005:1,2019-08-04T11:24:00Z,27.6346,-97.2370,1.067,11111222 
TCOON,ioos:station:TCOON:005:1,2019-08-04T12:24:00Z,27.6346,-97.2370,1.074,11111222 
TCOON,ioos:station:TCOON:005:1,2019-08-04T13:24:00Z,27.6346,-97.2370,1.088,11111222 
TCOON,ioos:station:TCOON:005:1,2019-08-04T14:24:00Z,27.6346,-97.2370,1.096,11111222 
TCOON,ioos:station:TCOON:005:1,2019-08-04T15:24:00Z,27.6346,-97.2370,1.112,11111222 
TCOON,ioos:station:TCOON:005:1,2019-08-04T16:24:00Z,27.6346,-97.2370,1.123,11111222 
TCOON,ioos:station:TCOON:005:1,2019-08-04T17:24:00Z,27.6346,-97.2370,1.133,11111222 
TCOON,ioos:station:TCOON:005:1,2019-08-04T18:24:00Z,27.6346,-97.2370,1.129,11111222 
TCOON,ioos:station:TCOON:005:1,2019-08-04T19:24:00Z,27.6346,-97.2370,1.129,11111222 
TCOON,ioos:station:TCOON:005:1,2019-08-04T20:24:00Z,27.6346,-97.2370,1.13,11111222 
TCOON,ioos:station:TCOON:005:1,2019-08-04T21:24:00Z,27.6346,-97.2370,1.13,11111222 
TCOON,ioos:station:TCOON:005:1,2019-08-04T22:24:00Z,27.6346,-97.2370,1.126,11111222 
TCOON,ioos:station:TCOON:005:1,2019-08-04T23:24:00Z,27.6346,-97.2370,1.121,11111222 
TCOON,ioos:station:TCOON:005:1,2019-08-05T00:24:00Z,27.6346,-97.2370,1.12,11111222 
TCOON,ioos:station:TCOON:005:1,2019-08-05T01:24:00Z,27.6346,-97.2370,1.12,11111222 
TCOON,ioos:station:TCOON:005:1,2019-08-05T02:24:00Z,27.6346,-97.2370,1.123,11111222 
TCOON,ioos:station:TCOON:005:1,2019-08-05T03:24:00Z,27.6346,-97.2370,1.119,11111222 
TCOON,ioos:station:TCOON:005:1,2019-08-05T04:24:00Z,27.6346,-97.2370,1.114,11111222 
TCOON,ioos:station:TCOON:005:1,2019-08-05T05:24:00Z,27.6346,-97.2370,1.104,11111222 
TCOON,ioos:station:TCOON:005:1,2019-08-05T06:24:00Z,27.6346,-97.2370,1.092,11111222 
TCOON,ioos:station:TCOON:005:1,2019-08-05T07:24:00Z,27.6346,-97.2370,1.09,11111222 
TCOON,ioos:station:TCOON:005:1,2019-08-05T08:24:00Z,27.6346,-97.2370,1.088,11111222 
TCOON,ioos:station:TCOON:005:1,2019-08-05T09:24:00Z,27.6346,-97.2370,1.085,11111222 
TCOON,ioos:station:TCOON:005:1,2019-08-05T10:24:00Z,27.6346,-97.2370,1.092,11111222 
TCOON,ioos:station:TCOON:005:1,2019-08-05T11:24:00Z,27.6346,-97.2370,1.099,11111222 
TCOON,ioos:station:TCOON:005:1,2019-08-05T12:24:00Z,27.6346,-97.2370,1.1,11111222 
TCOON,ioos:station:TCOON:005:1,2019-08-05T13:24:00Z,27.6346,-97.2370,1.1,11111222 
TCOON,ioos:station:TCOON:005:1,2019-08-05T14:24:00Z,27.6346,-97.2370,1.109,11111222 
TCOON,ioos:station:TCOON:005:1,2019-08-05T15:24:00Z,27.6346,-97.2370,1.12,11111222 
TCOON,ioos:station:TCOON:005:1,2019-08-05T16:30:00Z,27.6346,-97.2370,1.124,11111222 
TCOON,ioos:station:TCOON:005:1,2019-08-05T17:30:00Z,27.6346,-97.2370,1.118,11111222 
TCOON,ioos:station:TCOON:005:1,2019-08-05T18:24:00Z,27.6346,-97.2370,1.119,11111222 
TCOON,ioos:station:TCOON:005:1,2019-08-05T19:24:00Z,27.6346,-97.2370,1.109,11111222 
TCOON,ioos:station:TCOON:005:1,2019-08-05T20:24:00Z,27.6346,-97.2370,1.103,11111222 
TCOON,ioos:station:TCOON:005:1,2019-08-05T21:24:00Z,27.6346,-97.2370,1.096,11111222 
TCOON,ioos:station:TCOON:005:1,2019-08-05T22:24:00Z,27.6346,-97.2370,1.084,11111222 
TCOON,ioos:station:TCOON:005:1,2019-08-05T23:24:00Z,27.6346,-97.2370,1.08,11111222 
TCOON,ioos:station:TCOON:005:1,2019-08-06T00:24:00Z,27.6346,-97.2370,1.075,11111222 
TCOON,ioos:station:TCOON:005:1,2019-08-06T01:24:00Z,27.6346,-97.2370,1.077,11111222 
TCOON,ioos:station:TCOON:005:1,2019-08-06T02:24:00Z,27.6346,-97.2370,1.081,11111222 
TCOON,ioos:station:TCOON:005:1,2019-08-06T03:24:00Z,27.6346,-97.2370,1.087,11111222 
TCOON,ioos:station:TCOON:005:1,2019-08-06T04:24:00Z,27.6346,-97.2370,1.088,11111222 
TCOON,ioos:station:TCOON:005:1,2019-08-06T05:24:00Z,27.6346,-97.2370,1.087,11111222 
TCOON,ioos:station:TCOON:005:1,2019-08-06T06:24:00Z,27.6346,-97.2370,1.09,11111222 
TCOON,ioos:station:TCOON:005:1,2019-08-06T07:24:00Z,27.6346,-97.2370,1.089,11111222 
TCOON,ioos:station:TCOON:005:1,2019-08-06T08:24:00Z,27.6346,-97.2370,1.086,11111222 
TCOON,ioos:station:TCOON:005:1,2019-08-06T09:24:00Z,27.6346,-97.2370,1.088,11111222 
TCOON,ioos:station:TCOON:005:1,2019-08-06T10:24:00Z,27.6346,-97.2370,1.091,11111222 
TCOON,ioos:station:TCOON:005:1,2019-08-06T11:24:00Z,27.6346,-97.2370,1.093,11111222 
TCOON,ioos:station:TCOON:005:1,2019-08-06T12:24:00Z,27.6346,-97.2370,1.091,11111222 
TCOON,ioos:station:TCOON:005:1,2019-08-06T13:24:00Z,27.6346,-97.2370,1.086,11111222 
TCOON,ioos:station:TCOON:005:1,2019-08-06T14:24:00Z,27.6346,-97.2370,1.095,11111222 
TCOON,ioos:station:TCOON:005:1,2019-08-06T15:24:00Z,27.6346,-97.2370,1.098,11111222 
TCOON,ioos:station:TCOON:005:1,2019-08-06T16:24:00Z,27.6346,-97.2370,1.094,11111222 
TCOON,ioos:station:TCOON:005:1,2019-08-06T17:30:00Z,27.6346,-97.2370,1.09,11111222 
TCOON,ioos:station:TCOON:005:1,2019-08-06T18:24:00Z,27.6346,-97.2370,1.084,11111222 
TCOON,ioos:station:TCOON:005:1,2019-08-06T19:24:00Z,27.6346,-97.2370,1.076,11111222 
TCOON,ioos:station:TCOON:005:1,2019-08-06T20:24:00Z,27.6346,-97.2370,1.067,11111222 
TCOON,ioos:station:TCOON:005:1,2019-08-06T21:24:00Z,27.6346,-97.2370,1.053,11111222 
TCOON,ioos:station:TCOON:005:1,2019-08-06T22:24:00Z,27.6346,-97.2370,1.043,11111222 
TCOON,ioos:station:TCOON:005:1,2019-08-06T23:24:00Z,27.6346,-97.2370,1.041,11111222 
TCOON,ioos:station:TCOON:005:1,2019-08-07T00:24:00Z,27.6346,-97.2370,1.044,11111222 
TCOON,ioos:station:TCOON:005:1,2019-08-07T01:24:00Z,27.6346,-97.2370,1.038,11111222 
TCOON,ioos:station:TCOON:005:1,2019-08-07T02:24:00Z,27.6346,-97.2370,1.04,11111222 
TCOON,ioos:station:TCOON:005:1,2019-08-07T03:24:00Z,27.6346,-97.2370,1.043,11111222 
TCOON,ioos:station:TCOON:005:1,2019-08-07T04:24:00Z,27.6346,-97.2370,1.049,11111222 
TCOON,ioos:station:TCOON:005:1,2019-08-07T05:24:00Z,27.6346,-97.2370,1.055,11111222 
TCOON,ioos:station:TCOON:005:1,2019-08-07T06:24:00Z,27.6346,-97.2370,1.064,11111222 
TCOON,ioos:station:TCOON:005:1,2019-08-07T07:24:00Z,27.6346,-97.2370,1.07,11111222 
TCOON,ioos:station:TCOON:005:1,2019-08-07T08:24:00Z,27.6346,-97.2370,1.074,11111222 
TCOON,ioos:station:TCOON:005:1,2019-08-07T09:24:00Z,27.6346,-97.2370,1.083,11111222 
TCOON,ioos:station:TCOON:005:1,2019-08-07T10:24:00Z,27.6346,-97.2370,1.089,11111222 
TCOON,ioos:station:TCOON:005:1,2019-08-07T11:24:00Z,27.6346,-97.2370,1.089,11111222 
TCOON,ioos:station:TCOON:005:1,2019-08-07T12:24:00Z,27.6346,-97.2370,1.089,11111222 
TCOON,ioos:station:TCOON:005:1,2019-08-07T13:24:00Z,27.6346,-97.2370,1.085,11111222 
TCOON,ioos:station:TCOON:005:1,2019-08-07T14:24:00Z,27.6346,-97.2370,1.087,11111222 
TCOON,ioos:station:TCOON:005:1,2019-08-07T15:30:00Z,27.6346,-97.2370,1.085,11111222 
TCOON,ioos:station:TCOON:005:1,2019-08-07T16:24:00Z,27.6346,-97.2370,1.078,11111222 
TCOON,ioos:station:TCOON:005:1,2019-08-07T17:24:00Z,27.6346,-97.2370,1.075,11111222 
TCOON,ioos:station:TCOON:005:1,2019-08-07T18:24:00Z,27.6346,-97.2370,1.064,11111222 
TCOON,ioos:station:TCOON:005:1,2019-08-07T19:24:00Z,27.6346,-97.2370,1.05,11111222 
TCOON,ioos:station:TCOON:005:1,2019-08-07T20:24:00Z,27.6346,-97.2370,1.038,11111222 
TCOON,ioos:station:TCOON:005:1,2019-08-07T21:24:00Z,27.6346,-97.2370,1.026,11111222 
TCOON,ioos:station:TCOON:005:1,2019-08-07T22:24:00Z,27.6346,-97.2370,1.016,11111222 
TCOON,ioos:station:TCOON:005:1,2019-08-07T23:24:00Z,27.6346,-97.2370,1.006,11111222 
TCOON,ioos:station:TCOON:005:1,2019-08-08T00:24:00Z,27.6346,-97.2370,1.001,11111222 
TCOON,ioos:station:TCOON:005:1,2019-08-08T01:24:00Z,27.6346,-97.2370,1.003,11111222 
TCOON,ioos:station:TCOON:005:1,2019-08-08T02:24:00Z,27.6346,-97.2370,1.001,11111222 
TCOON,ioos:station:TCOON:005:1,2019-08-08T03:24:00Z,27.6346,-97.2370,0.997,11111222 
TCOON,ioos:station:TCOON:005:1,2019-08-08T04:24:00Z,27.6346,-97.2370,0.997,11111222 
TCOON,ioos:station:TCOON:005:1,2019-08-08T06:24:00Z,27.6346,-97.2370,1.016,11111222 
TCOON,ioos:station:TCOON:005:1,2019-08-08T07:24:00Z,27.6346,-97.2370,1.032,11111222 
TCOON,ioos:station:TCOON:005:1,2019-08-08T08:24:00Z,27.6346,-97.2370,1.041,11111222 
TCOON,ioos:station:TCOON:005:1,2019-08-08T09:24:00Z,27.6346,-97.2370,1.047,11111222 
TCOON,ioos:station:TCOON:005:1,2019-08-08T10:24:00Z,27.6346,-97.2370,1.052,11111222 
TCOON,ioos:station:TCOON:005:1,2019-08-08T11:24:00Z,27.6346,-97.2370,1.061,11111222 
TCOON,ioos:station:TCOON:005:1,2019-08-08T12:24:00Z,27.6346,-97.2370,1.073,11111222 
TCOON,ioos:station:TCOON:005:1,2019-08-08T13:24:00Z,27.6346,-97.2370,1.074,11111222 
TCOON,ioos:station:TCOON:005:1,2019-08-08T14:24:00Z,27.6346,-97.2370,1.078,11111222 
TCOON,ioos:station:TCOON:005:1,2019-08-08T15:24:00Z,27.6346,-97.2370,1.076,11111222 
TCOON,ioos:station:TCOON:005:1,2019-08-08T16:30:00Z,27.6346,-97.2370,1.064,11111222 
TCOON,ioos:station:TCOON:005:1,2019-08-08T17:30:00Z,27.6346,-97.2370,1.051,11111222 
TCOON,ioos:station:TCOON:005:1,2019-08-08T18:30:00Z,27.6346,-97.2370,1.04,11111222 
TCOON,ioos:station:TCOON:005:1,2019-08-08T19:24:00Z,27.6346,-97.2370,1.026,11111222 
TCOON,ioos:station:TCOON:005:1,2019-08-08T20:24:00Z,27.6346,-97.2370,1.013,11111222 
TCOON,ioos:station:TCOON:005:1,2019-08-08T21:24:00Z,27.6346,-97.2370,0.997,11111222 
TCOON,ioos:station:TCOON:005:1,2019-08-08T22:24:00Z,27.6346,-97.2370,0.985,11111222 
TCOON,ioos:station:TCOON:005:1,2019-08-08T23:24:00Z,27.6346,-97.2370,0.974,11111222 
TCOON,ioos:station:TCOON:005:1,2019-08-09T00:24:00Z,27.6346,-97.2370,0.963,11111222 
TCOON,ioos:station:TCOON:005:1,2019-08-09T01:24:00Z,27.6346,-97.2370,0.961,11111222 
TCOON,ioos:station:TCOON:005:1,2019-08-09T02:24:00Z,27.6346,-97.2370,0.966,11111222 
TCOON,ioos:station:TCOON:005:1,2019-08-09T03:24:00Z,27.6346,-97.2370,0.964,11111222 
TCOON,ioos:station:TCOON:005:1,2019-08-09T04:24:00Z,27.6346,-97.2370,0.959,11111222 
TCOON,ioos:station:TCOON:005:1,2019-08-09T05:24:00Z,27.6346,-97.2370,0.965,11111222 
TCOON,ioos:station:TCOON:005:1,2019-08-09T06:24:00Z,27.6346,-97.2370,0.968,11111222 
TCOON,ioos:station:TCOON:005:1,2019-08-09T07:24:00Z,27.6346,-97.2370,0.975,11111222 
TCOON,ioos:station:TCOON:005:1,2019-08-09T08:24:00Z,27.6346,-97.2370,0.986,11111222 
TCOON,ioos:station:TCOON:005:1,2019-08-09T09:24:00Z,27.6346,-97.2370,1.004,11111222 
TCOON,ioos:station:TCOON:005:1,2019-08-09T10:24:00Z,27.6346,-97.2370,1.02,11111222 
TCOON,ioos:station:TCOON:005:1,2019-08-09T11:24:00Z,27.6346,-97.2370,1.037,11111222 
TCOON,ioos:station:TCOON:005:1,2019-08-09T12:24:00Z,27.6346,-97.2370,1.047,11111222 
TCOON,ioos:station:TCOON:005:1,2019-08-09T13:24:00Z,27.6346,-97.2370,1.053,11111222 
TCOON,ioos:station:TCOON:005:1,2019-08-09T14:24:00Z,27.6346,-97.2370,1.055,11111222 
TCOON,ioos:station:TCOON:005:1,2019-08-09T15:24:00Z,27.6346,-97.2370,1.06,11111222 
TCOON,ioos:station:TCOON:005:1,2019-08-09T16:24:00Z,27.6346,-97.2370,1.055,11111222 
TCOON,ioos:station:TCOON:005:1,2019-08-09T17:24:00Z,27.6346,-97.2370,1.047,11111222 
TCOON,ioos:station:TCOON:005:1,2019-08-09T18:24:00Z,27.6346,-97.2370,1.036,11111222 
TCOON,ioos:station:TCOON:005:1,2019-08-09T19:24:00Z,27.6346,-97.2370,1.025,11111222 
TCOON,ioos:station:TCOON:005:1,2019-08-09T20:24:00Z,27.6346,-97.2370,1.005,11111222 
TCOON,ioos:station:TCOON:005:1,2019-08-09T21:24:00Z,27.6346,-97.2370,0.988,11111222 
TCOON,ioos:station:TCOON:005:1,2019-08-09T22:24:00Z,27.6346,-97.2370,0.97,11111222 
TCOON,ioos:station:TCOON:005:1,2019-08-09T23:24:00Z,27.6346,-97.2370,0.955,11111222 
TCOON,ioos:station:TCOON:005:1,2019-08-10T00:24:00Z,27.6346,-97.2370,0.945,11111222 
TCOON,ioos:station:TCOON:005:1,2019-08-10T01:24:00Z,27.6346,-97.2370,0.928,11111222 
TCOON,ioos:station:TCOON:005:1,2019-08-10T02:24:00Z,27.6346,-97.2370,0.921,11111222 
TCOON,ioos:station:TCOON:005:1,2019-08-10T03:54:00Z,27.6346,-97.2370,0.933,11111222 
TCOON,ioos:station:TCOON:005:1,2019-08-10T04:54:00Z,27.6346,-97.2370,0.935,11111222 
TCOON,ioos:station:TCOON:005:1,2019-08-10T05:54:00Z,27.6346,-97.2370,0.937,11111222 
TCOON,ioos:station:TCOON:005:1,2019-08-10T06:54:00Z,27.6346,-97.2370,0.945,11111222 
TCOON,ioos:station:TCOON:005:1,2019-08-10T07:54:00Z,27.6346,-97.2370,0.949,11111222 
TCOON,ioos:station:TCOON:005:1,2019-08-10T08:54:00Z,27.6346,-97.2370,0.955,11111222 
TCOON,ioos:station:TCOON:005:1,2019-08-10T09:54:00Z,27.6346,-97.2370,0.968,11111222 
TCOON,ioos:station:TCOON:005:1,2019-08-10T10:54:00Z,27.6346,-97.2370,0.991,11111222 
TCOON,ioos:station:TCOON:005:1,2019-08-10T11:54:00Z,27.6346,-97.2370,1.014,11111222 
TCOON,ioos:station:TCOON:005:1,2019-08-10T12:54:00Z,27.6346,-97.2370,1.028,11111222 
TCOON,ioos:station:TCOON:005:1,2019-08-10T13:54:00Z,27.6346,-97.2370,1.037,11111222 
TCOON,ioos:station:TCOON:005:1,2019-08-10T14:54:00Z,27.6346,-97.2370,1.041,11111222 
TCOON,ioos:station:TCOON:005:1,2019-08-10T15:54:00Z,27.6346,-97.2370,1.046,11111222 
TCOON,ioos:station:TCOON:005:1,2019-08-10T16:54:00Z,27.6346,-97.2370,1.041,11111222 
TCOON,ioos:station:TCOON:005:1,2019-08-10T17:54:00Z,27.6346,-97.2370,1.036,11111222 
TCOON,ioos:station:TCOON:005:1,2019-08-10T18:54:00Z,27.6346,-97.2370,1.029,11111222 
TCOON,ioos:station:TCOON:005:1,2019-08-10T19:54:00Z,27.6346,-97.2370,1.025,11111222 
TCOON,ioos:station:TCOON:005:1,2019-08-10T20:54:00Z,27.6346,-97.2370,1.014,11111222 
TCOON,ioos:station:TCOON:005:1,2019-08-10T21:54:00Z,27.6346,-97.2370,0.99,11111222 
TCOON,ioos:station:TCOON:005:1,2019-08-10T22:54:00Z,27.6346,-97.2370,0.974,11111222 
TCOON,ioos:station:TCOON:005:1,2019-08-10T23:54:00Z,27.6346,-97.2370,0.957,11111222 
TCOON,ioos:station:TCOON:005:1,2019-08-11T00:54:00Z,27.6346,-97.2370,0.94,11111222 
TCOON,ioos:station:TCOON:005:1,2019-08-11T01:54:00Z,27.6346,-97.2370,0.924,11111222 
TCOON,ioos:station:TCOON:005:1,2019-08-11T05:54:00Z,27.6346,-97.2370,0.921,11111222 
TCOON,ioos:station:TCOON:005:1,2019-08-11T07:54:00Z,27.6346,-97.2370,0.934,11111222 
TCOON,ioos:station:TCOON:005:1,2019-08-11T09:54:00Z,27.6346,-97.2370,0.961,11111222 
TCOON,ioos:station:TCOON:005:1,2019-08-11T10:54:00Z,27.6346,-97.2370,0.978,11111222 
TCOON,ioos:station:TCOON:005:1,2019-08-11T12:54:00Z,27.6346,-97.2370,1.01,11111222 
TCOON,ioos:station:TCOON:005:1,2019-08-11T21:24:00Z,27.6346,-97.2370,0.997,11111222 
TCOON,ioos:station:TCOON:005:1,2019-08-12T08:06:00Z,27.6346,-97.2370,0.915,11111222 
TCOON,ioos:station:TCOON:005:1,2019-08-12T11:54:00Z,27.6346,-97.2370,0.957,11111222 
TCOON,ioos:station:TCOON:005:1,2019-08-12T12:54:00Z,27.6346,-97.2370,0.973,11111222 
TCOON,ioos:station:TCOON:005:1,2019-08-12T13:24:00Z,27.6346,-97.2370,0.982,11111222 
TCOON,ioos:station:TCOON:005:1,2019-08-12T14:24:00Z,27.6346,-97.2370,0.995,11111222 
TCOON,ioos:station:TCOON:005:1,2019-08-12T15:24:00Z,27.6346,-97.2370,1.001,11111222 
TCOON,ioos:station:TCOON:005:1,2019-08-12T16:30:00Z,27.6346,-97.2370,1.004,11111222 
TCOON,ioos:station:TCOON:005:1,2019-08-12T17:24:00Z,27.6346,-97.2370,1.005,11111222 
TCOON,ioos:station:TCOON:005:1,2019-08-12T18:24:00Z,27.6346,-97.2370,1.002,11111222 
TCOON,ioos:station:TCOON:005:1,2019-08-12T19:24:00Z,27.6346,-97.2370,0.991,11111222 
TCOON,ioos:station:TCOON:005:1,2019-08-12T20:24:00Z,27.6346,-97.2370,0.985,11111222 
TCOON,ioos:station:TCOON:005:1,2019-08-12T21:24:00Z,27.6346,-97.2370,0.978,11111222 
TCOON,ioos:station:TCOON:005:1,2019-08-12T22:24:00Z,27.6346,-97.2370,0.966,11111222 
TCOON,ioos:station:TCOON:005:1,2019-08-12T23:24:00Z,27.6346,-97.2370,0.947,11111222 
TCOON,ioos:station:TCOON:005:1,2019-08-13T00:24:00Z,27.6346,-97.2370,0.928,11111222 
TCOON,ioos:station:TCOON:005:1,2019-08-13T01:24:00Z,27.6346,-97.2370,0.913,11111222 
TCOON,ioos:station:TCOON:005:1,2019-08-13T02:24:00Z,27.6346,-97.2370,0.9,11111222 
TCOON,ioos:station:TCOON:005:1,2019-08-13T03:24:00Z,27.6346,-97.2370,0.886,11111222 
TCOON,ioos:station:TCOON:005:1,2019-08-13T04:24:00Z,27.6346,-97.2370,0.879,11111222 
TCOON,ioos:station:TCOON:005:1,2019-08-13T05:24:00Z,27.6346,-97.2370,0.875,11111222 
TCOON,ioos:station:TCOON:005:1,2019-08-13T06:24:00Z,27.6346,-97.2370,0.885,11111222 
TCOON,ioos:station:TCOON:005:1,2019-08-13T07:54:00Z,27.6346,-97.2370,0.89,11111222 
TCOON,ioos:station:TCOON:005:1,2019-08-13T08:54:00Z,27.6346,-97.2370,0.889,11111222 
TCOON,ioos:station:TCOON:005:1,2019-08-13T09:54:00Z,27.6346,-97.2370,0.909,11111222 
TCOON,ioos:station:TCOON:005:1,2019-08-13T10:54:00Z,27.6346,-97.2370,0.92,11111222 
TCOON,ioos:station:TCOON:005:1,2019-08-13T11:24:00Z,27.6346,-97.2370,0.929,11111222 
TCOON,ioos:station:TCOON:005:1,2019-08-13T12:24:00Z,27.6346,-97.2370,0.942,11111222 
TCOON,ioos:station:TCOON:005:1,2019-08-13T13:24:00Z,27.6346,-97.2370,0.958,11111222 
TCOON,ioos:station:TCOON:005:1,2019-08-13T14:24:00Z,27.6346,-97.2370,0.974,11111222 
TCOON,ioos:station:TCOON:005:1,2019-08-13T15:24:00Z,27.6346,-97.2370,0.983,11111222 
TCOON,ioos:station:TCOON:005:1,2019-08-13T16:24:00Z,27.6346,-97.2370,0.992,11111222 
TCOON,ioos:station:TCOON:005:1,2019-08-13T17:24:00Z,27.6346,-97.2370,0.995,11111222 
TCOON,ioos:station:TCOON:005:1,2019-08-13T18:24:00Z,27.6346,-97.2370,0.996,11111222 
TCOON,ioos:station:TCOON:005:1,2019-08-13T19:24:00Z,27.6346,-97.2370,0.998,11111222 
TCOON,ioos:station:TCOON:005:1,2019-08-13T20:24:00Z,27.6346,-97.2370,0.993,11111222 
TCOON,ioos:station:TCOON:005:1,2019-08-13T21:24:00Z,27.6346,-97.2370,0.982,11111222 
TCOON,ioos:station:TCOON:005:1,2019-08-13T22:24:00Z,27.6346,-97.2370,0.979,11111222 
TCOON,ioos:station:TCOON:005:1,2019-08-13T23:36:00Z,27.6346,-97.2370,0.964,11111222 
TCOON,ioos:station:TCOON:005:1,2019-08-14T00:24:00Z,27.6346,-97.2370,0.955,11111222 
TCOON,ioos:station:TCOON:005:1,2019-08-14T01:24:00Z,27.6346,-97.2370,0.935,11111222 